[TLELIST] Archives

 

[TLELIST] Current TLEs

June 8th 2024 PDT

HST 1 20580U 90037B 24160.04557392 .00009423 00000-0 44611-3 0 9999 2 20580 28.4697 46.3736 0002509 302.9327 57.1024 15.17631763675900 ISS (ZARYA) 1 25544U 98067A 24160.37815128 .00030115 00000-0 51415-3 0 9997 2 25544 51.6400 358.9306 0006060 294.2073 126.6068 15.51037239457181 CXO 1 25867U 99040B 24162.57397644 .00000404 00000-0 00000+0 0 9997 2 25867 41.0174 154.3466 8901905 296.0837 359.9966 0.37806988 25691 ...Continue Reading

[TLELIST] Current TLEs

June 7th 2024 PDT

HST 1 20580U 90037B 24158.99339299 .00007913 00000-0 37339-3 0 9995 2 20580 28.4697 53.4215 0002473 290.5306 69.5021 15.17611690675743 ISS (ZARYA) 1 25544U 98067A 24159.10459243 .00019372 00000-0 33489-3 0 9991 2 25544 51.6415 5.2470 0005781 283.5954 221.4587 15.50962297456986 CXO 1 25867U 99040B 24159.92685133 .00000364 00000-0 00000-0 0 9991 2 25867 40.9579 154.6103 8904954 295.8797 359.6867 0.37806362 14532 ...Continue Reading

[TLELIST] Current TLEs

June 6th 2024 PDT

HST 1 20580U 90037B 24157.94119977 .00007794 00000-0 36782-3 0 9996 2 20580 28.4697 60.4689 0002442 278.1928 81.8387 15.17594950675329 ISS (ZARYA) 1 25544U 98067A 24158.30071759 .00018381 00000-0 31860-3 0 9994 2 25544 51.6406 9.2335 0005798 280.9495 52.7665 15.50926527456853 CXO 1 25867U 99040B 24159.92685133 .00000364 00000-0 00000-0 0 9991 2 25867 40.9579 154.6103 8904954 295.8797 359.6867 0.37806362 14532 ...Continue Reading

[TLELIST] Current TLEs

June 5th 2024 PDT

HST 1 20580U 90037B 24156.95475812 .00007989 00000-0 37738-3 0 9997 2 20580 28.4694 67.0764 0002436 265.6723 94.3591 15.17580514675170 ISS (ZARYA) 1 25544U 98067A 24157.10577803 .00018338 00000-0 31838-3 0 9999 2 25544 51.6408 15.1632 0005756 275.8155 221.8348 15.50881357456679 CXO 1 25867U 99040B 24159.92627997 .00000364 00000-0 00000-0 0 9995 2 25867 40.9579 154.6101 8904958 295.8800 359.6087 0.37806065 14522 ...Continue Reading

[TLELIST] Current TLEs

June 4th 2024 PDT

HST 1 20580U 90037B 24155.90254335 .00007018 00000-0 33054-3 0 9996 2 20580 28.4690 74.1242 0002400 252.6224 107.4106 15.17564924675017 ISS (ZARYA) 1 25544U 98067A 24156.33760032 .00019064 00000-0 33094-3 0 9994 2 25544 51.6400 18.9734 0005694 274.3203 251.6716 15.50855395456554 CXO 1 25867U 99040B 24157.28330877 .00000335 00000-0 00000+0 0 9997 2 25867 40.8904 154.9052 8907266 295.6498 359.8869 0.37810327 25671 ...Continue Reading

[TLELIST] Current TLEs

June 3rd 2024 PDT

HST 1 20580U 90037B 24155.17913958 .00006622 00000-0 31146-3 0 9998 2 20580 28.4686 78.9689 0002412 242.5077 117.5270 15.17555348675166 ISS (ZARYA) 1 25544U 98067A 24155.37185494 .00019028 00000-0 33077-3 0 9991 2 25544 51.6402 23.7695 0005819 272.6606 258.0010 15.50818298456406 CXO 1 25867U 99040B 24157.28330877 .00000335 00000-0 00000+0 0 9997 2 25867 40.8904 154.9052 8907266 295.6498 359.8869 0.37810327 25671 ...Continue Reading

[TLELIST] Current TLEs

June 3rd 2024 PDT

HST 1 20580U 90037B 24155.17913958 .00006622 00000-0 31146-3 0 9998 2 20580 28.4686 78.9689 0002412 242.5077 117.5270 15.17555348675166 ISS (ZARYA) 1 25544U 98067A 24155.37185494 .00019028 00000-0 33077-3 0 9991 2 25544 51.6402 23.7695 0005819 272.6606 258.0010 15.50818298456406 CXO 1 25867U 99040B 24157.28330877 .00000335 00000-0 00000+0 0 9997 2 25867 40.8904 154.9052 8907266 295.6498 359.8869 0.37810327 25671 ...Continue Reading

[TLELIST] Current TLEs

June 2nd 2024 PDT

HST 1 20580U 90037B 24154.12690863 .00006453 00000-0 30339-3 0 9994 2 20580 28.4684 86.0170 0002433 230.7982 129.2394 15.17542954675005 ISS (ZARYA) 1 25544U 98067A 24154.14112138 .00020290 00000-0 35270-3 0 9990 2 25544 51.6394 29.8703 0005731 264.9342 230.1734 15.50772906456215 CXO 1 25867U 99040B 24154.63990659 .00000428 00000-0 00000-0 0 9997 2 25867 40.8075 155.2457 8907848 295.3889 0.0934 0.37811928 14506 ...Continue Reading

[TLELIST] Current TLEs

June 1st 2024 PDT

HST 1 20580U 90037B 24152.94313893 .00006256 00000-0 29398-3 0 9991 2 20580 28.4682 93.9459 0002466 217.7278 142.3142 15.17529193674566 ISS (ZARYA) 1 25544U 98067A 24153.43921176 .00020913 00000-0 36363-3 0 9997 2 25544 51.6393 33.3528 0005658 261.4664 272.4771 15.50744573456103 CXO 1 25867U 99040B 24154.63990659 .00000428 00000-0 00000-0 0 9997 2 25867 40.8075 155.2457 8907848 295.3889 0.0934 0.37811928 14506 ...Continue Reading

[TLELIST] Current TLEs

June 1st 2024 PDT

HST 1 20580U 90037B 24152.94313893 .00006256 00000-0 29398-3 0 9991 2 20580 28.4682 93.9459 0002466 217.7278 142.3142 15.17529193674566 ISS (ZARYA) 1 25544U 98067A 24153.43921176 .00020913 00000-0 36363-3 0 9997 2 25544 51.6393 33.3528 0005658 261.4664 272.4771 15.50744573456103 CXO 1 25867U 99040B 24154.63990659 .00000428 00000-0 00000-0 0 9997 2 25867 40.8075 155.2457 8907848 295.3889 0.0934 0.37811928 14506 ...Continue Reading
  • This mailing list is a public mailing list - anyone may join or leave, at any time.
  • This mailing list is announce-only.

International Space Station (ISS) / Hubble Space Telescope (HST) / Chandra X-Ray Observatory Orbital Data via EMAIL

Privacy Policy:

Private list